Monticello, AR

5:51 AM CST on February 11, 2016 (GMT -0600)
Monticello Municipal-Ellis

Weather History for KLLQ - October, 2012

Change the Weather History Date:

Thursday, October 4, 2012

  Actual Average Record
Temperature  
Mean Temperature 68 °F -  
Max Temperature 82 °F 80 °F 94 °F (1986)
Min Temperature 55 °F 53 °F 33 °F (1987)
Cooling Degree Days 4    
Growing Degree Days 18 (Base 50)    
Moisture  
Dew Point 58 °F    
Average Humidity 82    
Maximum Humidity 100    
Minimum Humidity 42    
Precipitation  
Precipitation 0.00 in - - ()
Sea Level Pressure  
Sea Level Pressure 30.17 in    
Wind  
Wind Speed 1 mph (South)    
Max Wind Speed 7 mph    
Max Gust Speed -    
Visibility 6 miles    
Events Fog , Rain    
Averages and records for this station are not official NWS values.
T = Trace of Precipitation, MM = Missing Value Source: NWS Daily Summary

Daily Weather History Graph

Daily Weather History Graph

Search for Another Location

Airport or City:

Trip Planner

Search our weather history database for the weather conditions in past years. The results will help you decide how hot, cold, wet, or windy it might be!

Date:

Astronomy

Oct. 04, 2012 Rise Set
Actual Time 7:03 AM CDT 6:46 PM CDT
Civil Twilight 6:39 AM CDT 7:11 PM CDT
Nautical Twilight 6:10 AM CDT 7:40 PM CDT
Astronomical Twilight 5:41 AM CDT 8:09 PM CDT
Moon 9:35 PM CDT (10/4) 11:08 AM CDT (10/4)
Length of Visible Light 12h 32m
Length of Day
11h 42m
Waning Gibbous, 82% of the Moon is Illuminated
Oct 4
Waning Gibbous
Oct 8
Last Quarter
Oct 15
New
Oct 21
First Quarter
Oct 29
Full

Hourly Weather History & Observations

Time (CDT) Temp. Heat Index Dew Point Humidity Pressure Visibility Wind Dir Wind Speed Gust Speed Precip Events Conditions
12:53 AM 63.0 °F - 59.0 °F 87% 30.11 in 10.0 mi Calm Calm - N/A   Clear
1:53 AM 61.0 °F - 57.9 °F 90% 30.12 in 10.0 mi Calm Calm - N/A   Clear
2:53 AM 61.0 °F - 57.9 °F 90% 30.12 in 9.0 mi Calm Calm - N/A   Clear
3:53 AM 62.1 °F - 59.0 °F 90% 30.13 in 8.0 mi Calm Calm - N/A   Clear
4:53 AM 57.0 °F - 55.0 °F 93% 30.14 in 6.0 mi Calm Calm - N/A   Clear
5:39 AM 57.2 °F - 55.4 °F 94% 30.17 in 2.0 mi Calm Calm - N/A   Clear
5:53 AM 57.0 °F - 55.9 °F 96% 30.17 in 2.5 mi Calm Calm - N/A   Clear
6:19 AM 55.4 °F - 55.4 °F 100% 30.18 in 3.0 mi Calm Calm - N/A   Clear
6:53 AM 55.9 °F - 54.0 °F 93% 30.18 in 5.0 mi Calm Calm - N/A   Clear
7:02 AM 55.4 °F - 53.6 °F 94% 30.19 in 3.0 mi Calm Calm - N/A   Partly Cloudy
7:04 AM 55.4 °F - 53.6 °F 94% 30.19 in 1.8 mi Calm Calm - N/A   Partly Cloudy
7:06 AM 55.4 °F - 53.6 °F 94% 30.19 in 0.8 mi Calm Calm - N/A   Mist
7:17 AM 55.4 °F - 53.6 °F 94% 30.19 in 2.0 mi Calm Calm - N/A   Partly Cloudy
7:30 AM 59.0 °F - 57.2 °F 94% 30.19 in 1.0 mi Calm Calm - N/A   Clear
7:37 AM 57.2 °F - 57.2 °F 100% 30.19 in 0.5 mi Calm Calm - N/A Fog Fog
7:42 AM 57.2 °F - 55.4 °F 94% 30.19 in 0.2 mi Calm Calm - N/A Fog Fog
7:49 AM 57.2 °F - 55.4 °F 94% 30.19 in 0.2 mi Calm Calm - N/A Fog Fog
7:53 AM 57.0 °F - 55.9 °F 96% 30.19 in 0.2 mi Calm Calm - 0.00 in Fog , Rain Light Rain
8:34 AM 60.8 °F - 60.8 °F 100% 30.20 in 1.0 mi Calm Calm - 0.00 in   Mist
8:39 AM 62.6 °F - 60.8 °F 94% 30.20 in 3.0 mi Calm Calm - 0.00 in   Mostly Cloudy
8:46 AM 62.6 °F - 60.8 °F 94% 30.21 in 5.0 mi Calm Calm - 0.00 in   Scattered Clouds
8:53 AM 63.0 °F - 62.1 °F 97% 30.21 in 7.0 mi Calm Calm - 0.00 in   Partly Cloudy
9:53 AM 68.0 °F - 63.0 °F 84% 30.22 in 10.0 mi Calm Calm - N/A   Clear
10:53 AM 75.0 °F - 64.9 °F 71% 30.23 in 10.0 mi Variable 3.5 mph - N/A   Clear
11:53 AM 79.0 °F - 61.0 °F 54% 30.23 in 10.0 mi Calm Calm - N/A   Clear
12:53 PM 81.0 °F 81.0 °F 57.0 °F 44% 30.21 in 10.0 mi Variable 4.6 mph - 0.00 in   Clear
1:53 PM 81.0 °F 81.0 °F 57.0 °F 44% 30.18 in 10.0 mi Variable 3.5 mph - N/A   Clear
2:53 PM 82.0 °F 82.0 °F 57.9 °F 44% 30.16 in 10.0 mi South 5.8 mph - N/A   Partly Cloudy
3:53 PM 82.0 °F 81.7 °F 57.0 °F 42% 30.15 in 10.0 mi SSE 5.8 mph - 0.00 in   Partly Cloudy
4:53 PM 82.0 °F 82.0 °F 57.9 °F 44% 30.14 in 10.0 mi SSE 6.9 mph - N/A   Clear
5:53 PM 80.1 °F 80.7 °F 59.0 °F 48% 30.13 in 10.0 mi South 4.6 mph - N/A   Clear
6:53 PM 73.9 °F - 62.1 °F 66% 30.13 in 10.0 mi Calm Calm - N/A   Clear
7:53 PM 69.1 °F - 63.0 °F 81% 30.14 in 10.0 mi Calm Calm - 0.00 in   Clear
8:53 PM 66.9 °F - 62.1 °F 84% 30.14 in 10.0 mi Calm Calm - N/A   Clear
9:53 PM 64.9 °F - 62.1 °F 90% 30.16 in 10.0 mi Calm Calm - N/A   Clear
10:53 PM 63.0 °F - 61.0 °F 93% 30.17 in 8.0 mi Calm Calm - N/A   Clear
11:53 PM 63.0 °F - 60.1 °F 90% 30.16 in 7.0 mi Calm Calm - N/A   Clear